Big Bear Station Historical Data
Daily Summary for November 30, 2017 Units:  English    Metric   Both
« Previous Day
Next Day »
Daily Weekly Monthly Yearly Custom
  High: Low: Average:
Temperature: 55.0 °F 30.0 °F 40.8 °F
Dew Point: 30.0 °F 20.0 °F 24.6 °F
Humidity: 85 % 31 % 57 %
Wind Speed: 5.3 mph 0.0 mph 0.8 mph
Wind Gust: -999.0 mph - -
Wind:- - WNW
Pressure: 30.27 in 30.19 in -
Precipitation: 0.00 in    
Historical Graphs
 
 
Tabular Data for November 30, 2017
Time Temperature Dew Point Pressure Wind Wind Speed Wind Gust Humidity Rainfall Rate (Hourly)
00:09 32.2 °F 23.5 °F 30.26 in Calm   -999.0 mph 70 % 0 in
00:25 32.0 °F 23.7 °F 30.25 in Calm   -999.0 mph 71 % 0 in
00:40 32.0 °F 24.0 °F 30.25 in Calm   -999.0 mph 72 % 0 in
00:55 31.6 °F 23.9 °F 30.25 in Calm   -999.0 mph 73 % 0 in
01:25 31.8 °F 23.8 °F 30.25 in Calm   -999.0 mph 72 % 0 in
01:41 31.5 °F 24.2 °F 30.25 in Calm   -999.0 mph 74 % 0 in
01:56 31.6 °F 24.3 °F 30.25 in Calm   -999.0 mph 74 % 0 in
02:11 31.3 °F 24.6 °F 30.24 in Calm   -999.0 mph 76 % 0 in
02:41 31.6 °F 25.5 °F 30.24 in Calm   -999.0 mph 78 % 0 in
03:12 30.9 °F 25.2 °F 30.24 in Calm   -999.0 mph 79 % 0 in
03:27 31.1 °F 25.3 °F 30.23 in Calm   -999.0 mph 79 % 0 in
03:42 30.6 °F 24.9 °F 30.23 in Calm   -999.0 mph 79 % 0 in
03:57 30.7 °F 25.3 °F 30.23 in Calm   -999.0 mph 80 % 0 in
04:43 30.7 °F 25.3 °F 30.23 in Calm   -999.0 mph 80 % 0 in
04:58 30.4 °F 24.7 °F 30.23 in Calm   -999.0 mph 79 % 0 in
05:13 30.4 °F 24.7 °F 30.23 in Calm   -999.0 mph 79 % 0 in
05:44 30.0 °F 26.0 °F 30.24 in Calm   -999.0 mph 85 % 0 in
05:59 30.0 °F 26.0 °F 30.24 in Calm   -999.0 mph 85 % 0 in
06:14 30.6 °F 26.6 °F 30.24 in Calm   -999.0 mph 85 % 0 in
06:29 30.4 °F 26.4 °F 30.24 in Calm   -999.0 mph 85 % 0 in
06:45 30.6 °F 26.3 °F 30.25 in Calm   -999.0 mph 84 % 0 in
07:00 30.2 °F 26.2 °F 30.25 in Calm   -999.0 mph 85 % 0 in
07:15 30.9 °F 26.9 °F 30.25 in Calm   -999.0 mph 85 % 0 in
07:30 30.9 °F 26.6 °F 30.26 in Calm   -999.0 mph 84 % 0 in
07:45 31.3 °F 26.7 °F 30.26 in Calm   -999.0 mph 83 % 0 in
08:01 31.6 °F 27.0 °F 30.26 in Calm   -999.0 mph 83 % 0 in
08:16 33.1 °F 27.6 °F 30.26 in Calm   -999.0 mph 80 % 0 in
08:31 33.8 °F 28.6 °F 30.26 in Calm   -999.0 mph 81 % 0 in
08:46 35.2 °F 30.0 °F 30.26 in Calm   -999.0 mph 81 % 0 in
09:02 36.0 °F 29.8 °F 30.26 in Calm   -999.0 mph 78 % 0 in
09:17 36.3 °F 29.8 °F 30.27 in Calm   -999.0 mph 77 % 0 in
10:02 41.4 °F 29.0 °F 30.26 in Calm   -999.0 mph 61 % 0 in
10:33 51.8 °F 26.3 °F 30.25 in WSW 2.7 mph -999.0 mph 37 % 0 in
10:49 53.1 °F 26.8 °F 30.26 in West 5.3 mph -999.0 mph 36 % 0 in
11:04 52.7 °F 26.5 °F 30.25 in WNW 1.7 mph -999.0 mph 36 % 0 in
11:19 53.2 °F 26.2 °F 30.25 in NW 2.7 mph -999.0 mph 35 % 0 in
11:35 53.4 °F 26.4 °F 30.24 in NNW 1.7 mph -999.0 mph 35 % 0 in
11:50 53.6 °F 26.6 °F 30.23 in NW 2.2 mph -999.0 mph 35 % 0 in
12:05 53.8 °F 26.1 °F 30.23 in NNW 2.7 mph -999.0 mph 34 % 0 in
12:20 54.0 °F 25.5 °F 30.22 in West 2.2 mph -999.0 mph 33 % 0 in
12:51 54.5 °F 26.0 °F 30.21 in NW 2.7 mph -999.0 mph 33 % 0 in
13:06 54.5 °F 25.2 °F 30.21 in Calm   -999.0 mph 32 % 0 in
13:36 54.7 °F 25.4 °F 30.21 in SW 2.2 mph -999.0 mph 32 % 0 in
14:07 54.9 °F 25.6 °F 30.20 in NW 2.7 mph -999.0 mph 32 % 0 in
14:22 55.0 °F 25.7 °F 30.20 in NNW 2.2 mph -999.0 mph 32 % 0 in
14:37 54.5 °F 24.5 °F 30.20 in NW 2.2 mph -999.0 mph 31 % 0 in
14:52 54.1 °F 25.6 °F 30.20 in Calm   -999.0 mph 33 % 0 in
15:08 53.8 °F 25.3 °F 30.20 in SSW 1.1 mph -999.0 mph 33 % 0 in
15:38 52.7 °F 24.4 °F 30.20 in WNW 2.7 mph -999.0 mph 33 % 0 in
15:53 51.8 °F 24.3 °F 30.20 in NW 2.2 mph -999.0 mph 34 % 0 in
16:24 50.0 °F 23.4 °F 30.20 in WNW 2.7 mph -999.0 mph 35 % 0 in
16:55 48.7 °F 22.3 °F 30.19 in Calm   -999.0 mph 35 % 0 in
17:10 48.4 °F 22.0 °F 30.20 in NNW 2.2 mph -999.0 mph 35 % 0 in
17:25 48.4 °F 22.0 °F 30.20 in Calm   -999.0 mph 35 % 0 in
17:40 48.0 °F 22.3 °F 30.20 in Calm   -999.0 mph 36 % 0 in
17:56 47.8 °F 22.1 °F 30.20 in NW 2.7 mph -999.0 mph 36 % 0 in
18:26 47.1 °F 21.5 °F 30.21 in WNW 2.7 mph -999.0 mph 36 % 0 in
18:42 47.1 °F 21.5 °F 30.21 in WNW 1.7 mph -999.0 mph 36 % 0 in
18:57 46.4 °F 21.5 °F 30.21 in Calm   -999.0 mph 37 % 0 in
19:12 46.0 °F 21.2 °F 30.21 in NNW 4.7 mph -999.0 mph 37 % 0 in
20:13 44.6 °F 20.5 °F 30.22 in SSE 2.2 mph -999.0 mph 38 % 0 in
20:28 43.3 °F 20.0 °F 30.23 in South 2.7 mph -999.0 mph 39 % 0 in
20:43 42.8 °F 20.1 °F 30.23 in Calm   -999.0 mph 40 % 0 in
20:59 41.5 °F 20.1 °F 30.23 in Calm   -999.0 mph 42 % 0 in
21:14 40.6 °F 20.4 °F 30.23 in Calm   -999.0 mph 44 % 0 in
21:29 39.7 °F 20.1 °F 30.23 in Calm   -999.0 mph 45 % 0 in
21:45 39.0 °F 21.4 °F 30.23 in Calm   -999.0 mph 49 % 0 in
22:30 37.2 °F 22.5 °F 30.23 in Calm   -999.0 mph 55 % 0 in
22:46 37.0 °F 22.8 °F 30.23 in Calm   -999.0 mph 56 % 0 in
23:01 36.3 °F 23.3 °F 30.23 in Calm   -999.0 mph 59 % 0 in
23:16 36.0 °F 23.8 °F 30.23 in Calm   -999.0 mph 61 % 0 in
23:31 36.0 °F 25.0 °F 30.23 in Calm   -999.0 mph 64 % 0 in
23:46 35.6 °F 24.6 °F 30.23 in Calm   -999.0 mph 64 % 0 in
Big Bear CA Weather
Compliments of Weather Underground - 1.25 mb